Torna al catalogo

DMSP 5D-2 F8 DEB

AttivoSSO
NORAD 60251·DEBRIS·🇺🇸 United States

Lanciato Jun 20, 1987 da Vandenberg Space Force Base

Loading…

Prossimi Passaggi (prossime 24 ore)

TLE

AggiornatoSource: Space-Track

Epoca: Sep 14, 2026, 12:48 UTC

1 60251U 87053J   26257.53348740  .00001641  00000-0  68701-3 0  9990
2 60251  98.7266  89.5241 0015049 210.1891 149.8424 14.27379189111987

Traccia DMSP 5D-2 F8 DEB in tempo reale con AllMySat

Download on the App Store